Regional Weather Roundup
Issued by NWS

Home | Current Version | Previous Version | Text Only | Print | Product List | Glossary Off
Versions: 1 2 3 4 5 6 7 8 9 10 11 12 13 14 15 16 17 18 19 20 21 22 23 24 25 26 27 28 29 30 31 32 33 34 35 36 37 38 39 40 41 42 43 44 45 46 47 48 49 50

450
ASUS45 KBOU 282007
RWRCO

WEATHER ROUNDUP FOR COLORADO
NATIONAL WEATHER SERVICE DENVER/BOULDER CO
200 PM MDT SUN MAY 28 2017

NOTE: "FAIR" INDICATES FEW OR NO CLOUDS BELOW 12000 FEET WITH NO
SIGNIFICANT WEATHER AND/OR OBSTRUCTIONS TO VISIBILITY.

COZ001>005-013-030-031-282100-
...NORTHWEST COLORADO...

CITY           SKY/WX    TMP DP  RH WIND       PRES   REMARKS
CRAIG          FAIR      65  29  25 E8        30.31F
HAYDEN         FAIR      61  28  29 W7        30.32F
MEEKER         FAIR      67  26  21 VRB5      30.29F
RABBIT EARS PA NOT AVBL
STEAMBOAT SPGS NOT AVBL
WALDEN         NOT AVBL
$$

COZ006>008-011-282100-
...WEST CENTRAL VALLEYS...

CITY           SKY/WX    TMP DP  RH WIND       PRES   REMARKS
GRAND JUNCTION FAIR      76  21  12 SW10G20   30.20F
MONTROSE       FAIR      70  22  16 N9        30.26F
EAGLE          SUNNY     63  30  29 S3        30.32F
RIFLE          FAIR      71  16  12 VRB5      30.24F
DELTA          FAIR      75  20  12 S6        30.23F
NUCLA          FAIR      72  18  13 W12       30.27F
$$

COZ017>023-064>068-282100-
...SOUTHWEST COLORADO...

CITY           SKY/WX    TMP DP  RH WIND       PRES   REMARKS
DURANGO        FAIR      68  13  12 N6        30.26F
CORTEZ         FAIR      73  15  11 S6        30.23F
PAGOSA SPRINGS FAIR      67   7   9 SW3       30.32F
TELLURIDE      FAIR      60  10  14 NW3       30.38F
WOLF CREEK PAS NOT AVBL
$$

COZ009-010-012-014-032>034-037-058>063-282100-
...CENTRAL COLORADO...

CITY           SKY/WX    TMP DP  RH WIND       PRES   REMARKS
ASPEN          FAIR      60  16  18 CALM      30.32F
BUENA VISTA    FAIR      63   7  11 E9        30.33F
COPPER MTN     NOT AVBL
BERTHOUD PASS  NOT AVBL
COTTONWOOD PAS NOT AVBL
GUNNISON       FAIR      63   4   9 E3        30.32F
KREMMLING      NOT AVBL
LEADVILLE      FAIR      53  17  24 VRB7      30.40F
SALIDA         FAIR      67  10  10 E6        30.37F
SUNLIGHT       NOT AVBL
WILKERSON PASS NOT AVBL
$$

COZ069>075-282100-
...SAN LUIS VALLEY/SANGRE DE CRISTO MOUNTAINS...

CITY           SKY/WX    TMP DP  RH WIND       PRES   REMARKS
ALAMOSA        FAIR      63  13  14 SE9       30.32F
DEL NORTE      NOT AVBL
LA VETA PASS   NOT AVBL
SAGUACHE       NOT AVBL
$$

COZ035-036-038>040-282100-
...NORTHERN COLORADO FRONT RANGE...

CITY           SKY/WX    TMP DP  RH WIND       PRES   REMARKS
DENVER INTL AP FAIR      68  32  26 VRB5      30.25F
DMNS CITY PARK   N/A     67  30  24 E6G17     30.24F
AURORA         MOSUNNY   67  30  25 NE9       30.27F
FRONT RANGE AP MOSUNNY   68  34  28 N9        30.26F
ERIE MUNI ARPT NOT AVBL
BOULDER MUN AP NOT AVBL
CENTENNIAL     FAIR      65  31  28 NE8       30.27F
BROOMFIELD     PTSUNNY   68  32  26 E7        30.27F
FORT COLLINS   PTSUNNY   68  32  26 VRB5      30.22F
LONGMONT       NOT AVBL
$$

COZ041-046-047-076>085-087-088-282100-
...PIKES PEAK/PALMER DIVIDE AND SOUTHERN FOOTHILLS...

CITY           SKY/WX    TMP DP  RH WIND       PRES   REMARKS
COLO. SPRINGS  FAIR      66  26  22 SW7       30.29F
A. F. ACADEMY  FAIR      63  28  26 NE6       30.29F
SCHRIEVER AFB  FAIR      64  27  24 W9        30.30F
CHEYENNE MTN   FAIR      61  28  28 N7        30.26F
ELLICOTT       FAIR     N/A N/A N/A NW10      30.28F
FALCON         FAIR      64  28  25 SE3       30.33F
FORT CARSON    FAIR      67  28  23 E5        30.27F
LIMON          FAIR      64  35  34 NW12G25   30.26F
MONUMENT HILL  NOT AVBL
CANON CITY     NOT AVBL
WALSENBURG     FAIR      66  34  30 CALM      30.29F
TRINIDAD       FAIR      67  30  25 N12       30.29F
$$

COZ042>045-048>051-090-091-282100-
...NORTHEAST COLORADO...

CITY           SKY/WX    TMP DP  RH WIND       PRES   REMARKS
GREELEY ARPT   FAIR      72  35  25 N8G17     30.21F
AKRON          FAIR      67  33  28 NW7       30.20F
BURLINGTON     FAIR      73  40  30 N8G17     30.19F
WRAY           FAIR      77  34  20 NW15G21   30.15F
YUMA           NOT AVBL
STERLING       NOT AVBL
HOLYOKE        NOT AVBL
FORT MORGAN    FAIR      73  30  21 N9G17     30.21S
$$

COZ086-089-092>099-282100-
...SOUTHEAST COLORADO...

CITY           SKY/WX    TMP DP  RH WIND       PRES   REMARKS
PUEBLO         FAIR      71  34  25 E8        30.23F
LA JUNTA       FAIR      73  39  29 MISG      30.21F
LAMAR          FAIR      73  37  27 N10       30.17F
SPRINGFIELD      N/A     70  39  32 N9G21     30.22F
$$




USA.gov is the U.S. government's official web portal to all federal, state and local government web resources and services.